Time,TemperatureF,DewpointF,PressureIn,WindDirection,WindDirectionDegrees,WindSpeedMPH,WindSpeedGustMPH,Humidity,HourlyPrecipIn,Conditions,Clouds,dailyrainin,SolarRadiationWatts/m^2,SoftwareType,DateUTC
2013-03-25 00:00:00,22.0,-99.9,44.89,WNW,294,1.0,3.0,-999,-99.99,,,0.00,0.000000,,2013-03-25 07:00:00,
2013-03-25 00:53:00,22.0,-99.9,44.89,WNW,294,1.0,3.0,-999,-99.99,,,0.00,0.000000,,2013-03-25 07:53:00,
2013-03-25 02:00:00,22.0,-99.9,44.89,West,281,1.0,4.0,-999,-99.99,,,-99.99,0.000000,,2013-03-25 09:00:00,
2013-03-25 03:00:00,31.0,-99.9,44.89,WSW,241,2.0,8.0,-999,-99.99,,,0.00,0.000000,,2013-03-25 10:00:00,
2013-03-25 04:00:00,28.0,-99.9,44.89,SW,230,2.0,9.0,-999,-99.99,,,0.00,0.000000,,2013-03-25 11:00:00,
2013-03-25 05:00:00,29.0,-99.9,44.89,West,266,2.0,10.0,-999,-99.99,,,0.00,0.000000,,2013-03-25 12:00:00,
2013-03-25 06:00:00,22.0,-99.9,44.89,NE,36,1.0,9.0,-999,-99.99,,,0.00,0.000000,,2013-03-25 13:00:00,
2013-03-25 07:00:00,29.0,-99.9,44.89,NNE,15,1.0,9.0,-999,-99.99,,,0.00,0.300000,,2013-03-25 14:00:00,
2013-03-25 08:00:00,33.0,-99.9,44.89,NNW,346,1.0,6.0,-999,-99.99,,,-99.99,3.100000,,2013-03-25 15:00:00,
2013-03-25 09:00:00,38.0,-99.9,44.89,ENE,57,2.0,10.0,-999,-99.99,,,0.00,24.700001,,2013-03-25 16:00:00,
2013-03-25 10:00:00,40.0,-99.9,44.89,East,91,2.0,9.0,-999,-99.99,,,0.00,38.799999,,2013-03-25 17:00:00,
2013-03-25 11:00:00,42.0,-99.9,44.89,North,-999,-999.0,-999.0,-999,-99.99,,,0.00,,,2013-03-25 18:00:00,
2013-03-25 12:00:00,41.0,-99.9,44.89,East,98,3.0,14.0,-999,-99.99,,,0.00,58.000000,,2013-03-25 19:00:00,
2013-03-25 13:00:00,44.0,-99.9,44.89,East,80,2.0,10.0,-999,-99.99,,,0.00,61.400002,,2013-03-25 20:00:00,
2013-03-25 14:00:00,46.0,-99.9,44.89,ENE,73,2.0,9.0,-999,-99.99,,,0.00,60.099998,,2013-03-25 21:00:00,
2013-03-25 15:00:00,45.0,-99.9,44.89,South,182,2.0,7.0,-999,-99.99,,,0.00,53.700001,,2013-03-25 22:00:00,
2013-03-25 16:00:00,45.0,-99.9,44.89,NE,52,3.0,8.0,-999,-99.99,,,-99.99,42.400002,,2013-03-25 23:00:00,
2013-03-25 16:53:00,45.0,-99.9,44.89,NE,52,3.0,8.0,-999,-99.99,,,-99.99,42.400002,,2013-03-25 23:53:00,
2013-03-25 17:00:00,43.0,-99.9,44.89,West,262,1.0,6.0,-999,-99.99,,,0.00,22.600000,,2013-03-26 00:00:00,
2013-03-25 17:43:00,43.0,-99.9,-100.00,West,262,1.0,6.0,-999,-99.99,,,0.00,22.600000,,2013-03-26 00:43:00,
2013-03-25 17:53:00,43.0,-99.9,44.89,West,262,1.0,6.0,-999,-99.99,,,0.00,22.600000,,2013-03-26 00:53:00,
2013-03-25 19:00:00,32.0,-99.9,44.89,WNW,296,1.0,4.0,-999,-99.99,,,0.00,0.300000,,2013-03-26 02:00:00,
2013-03-25 20:00:00,34.0,-99.9,44.89,West,281,1.0,7.0,-999,-99.99,,,0.00,0.000000,,2013-03-26 03:00:00,
2013-03-25 21:00:00,33.0,-99.9,44.89,West,268,1.0,4.0,-999,-99.99,,,0.00,0.000000,,2013-03-26 04:00:00,
2013-03-25 22:00:00,34.0,-99.9,44.89,West,280,2.0,7.0,-999,-99.99,,,0.00,0.000000,,2013-03-26 05:00:00,
2013-03-25 23:00:00,33.0,-99.9,44.89,West,279,2.0,7.0,-999,-99.99,,,0.00,0.000000,,2013-03-26 06:00:00,